GLD1136 SSHZ-SSZR

Flight info

Callsign GLD1136
Flight time 0h 11m
Altitude 3500
Route OPR/GOLD VIRTUAL AIRLINES PER/A RMK/FROM SSZR RMK/PIC GLD1136
Aircraft C172/M-SDFGIRY/S

Departure

Time 2026-05-04 18:57
Airport Walter Bündchen Airport (SSHZ)

Arrival

Time 2026-05-04 19:09
Airport Luis Alberto Lehr Airport (SSZR)
Time Latitude Longitude Altitude Speed Heading
2026-05-04 18:54 -27.64119 -54.33508 1067 ft 0 kts 238°
2026-05-04 18:55 -27.64122 -54.33512 1067 ft 3 kts 224°
2026-05-04 18:55 -27.64181 -54.33570 1067 ft 5 kts 250°
2026-05-04 18:55 -27.64178 -54.33586 1067 ft 0 kts 321°
2026-05-04 18:56 -27.64177 -54.33586 1067 ft 4 kts 321°
2026-05-04 18:56 -27.63999 -54.33752 1067 ft 59 kts 320°
2026-05-04 18:56 -27.63599 -54.34117 1107 ft 84 kts 320°
2026-05-04 18:56 -27.63129 -54.34551 1236 ft 90 kts 317°
2026-05-04 18:57 -27.62987 -54.35185 1343 ft 90 kts 245°
2026-05-04 18:57 -27.63505 -54.35467 1470 ft 87 kts 174°
2026-05-04 18:57 -27.64096 -54.35415 1610 ft 85 kts 179°
2026-05-04 18:57 -27.64690 -54.35422 1735 ft 86 kts 181°
2026-05-04 18:58 -27.65282 -54.35456 1860 ft 86 kts 184°
2026-05-04 18:58 -27.65884 -54.35529 1989 ft 87 kts 190°
2026-05-04 18:58 -27.66464 -54.35743 2122 ft 89 kts 204°
2026-05-04 18:58 -27.67014 -54.36061 2253 ft 90 kts 209°
2026-05-04 18:59 -27.67560 -54.36416 2382 ft 91 kts 211°
2026-05-04 18:59 -27.68107 -54.36784 2510 ft 91 kts 211°
2026-05-04 18:59 -27.68649 -54.37150 2635 ft 91 kts 211°
2026-05-04 18:59 -27.69208 -54.37489 2756 ft 92 kts 195°
2026-05-04 19:00 -27.69839 -54.37520 2889 ft 91 kts 179°
2026-05-04 19:00 -27.70471 -54.37502 3015 ft 91 kts 178°
2026-05-04 19:00 -27.71104 -54.37481 3140 ft 91 kts 178°
2026-05-04 19:00 -27.71728 -54.37460 3263 ft 90 kts 178°
2026-05-04 19:01 -27.72358 -54.37438 3387 ft 90 kts 178°
2026-05-04 19:01 -27.72987 -54.37417 3488 ft 92 kts 178°
2026-05-04 19:01 -27.73652 -54.37393 3522 ft 99 kts 178°
2026-05-04 19:01 -27.74373 -54.37368 3519 ft 106 kts 178°
2026-05-04 19:02 -27.75124 -54.37342 3503 ft 109 kts 178°
2026-05-04 19:02 -27.75896 -54.37318 3573 ft 116 kts 178°
2026-05-04 19:02 -27.76748 -54.37288 3530 ft 128 kts 178°
2026-05-04 19:02 -27.77651 -54.37268 3447 ft 130 kts 183°
2026-05-04 19:03 -27.78435 -54.37658 3478 ft 118 kts 216°
2026-05-04 19:03 -27.79052 -54.38224 3496 ft 114 kts 221°
2026-05-04 19:03 -27.79651 -54.38822 3498 ft 113 kts 222°
2026-05-04 19:03 -27.80229 -54.39413 3499 ft 113 kts 222°
2026-05-04 19:04 -27.80812 -54.40012 3499 ft 112 kts 222°
2026-05-04 19:04 -27.81385 -54.40604 3500 ft 112 kts 223°
2026-05-04 19:04 -27.81958 -54.41196 3500 ft 112 kts 223°
2026-05-04 19:04 -27.82538 -54.41795 3500 ft 112 kts 223°
2026-05-04 19:05 -27.83116 -54.42392 3500 ft 112 kts 223°
2026-05-04 19:05 -27.83684 -54.42980 3500 ft 112 kts 223°
2026-05-04 19:05 -27.84241 -54.43608 3500 ft 112 kts 227°
2026-05-04 19:05 -27.84763 -54.44262 3500 ft 112 kts 229°
2026-05-04 19:06 -27.85276 -54.44919 3500 ft 112 kts 229°
2026-05-04 19:06 -27.85793 -54.45589 3500 ft 112 kts 229°
2026-05-04 19:06 -27.86302 -54.46249 3499 ft 110 kts 229°
2026-05-04 19:06 -27.86774 -54.46828 3415 ft 90 kts 222°
2026-05-04 19:07 -27.87237 -54.47246 3156 ft 82 kts 218°
2026-05-04 19:07 -27.87688 -54.47651 2850 ft 83 kts 219°
2026-05-04 19:07 -27.88111 -54.48050 2602 ft 79 kts 219°
2026-05-04 19:07 -27.88525 -54.48459 2321 ft 79 kts 223°
2026-05-04 19:08 -27.88910 -54.48895 2053 ft 78 kts 227°
2026-05-04 19:08 -27.89267 -54.49360 1787 ft 79 kts 231°
2026-05-04 19:08 -27.89596 -54.49897 1582 ft 85 kts 238°
2026-05-04 19:08 -27.89914 -54.50473 1379 ft 87 kts 238°
2026-05-04 19:09 -27.90229 -54.51032 1214 ft 77 kts 238°
2026-05-04 19:09 -27.90495 -54.51505 1054 ft 72 kts 238°
2026-05-04 19:09 -27.90734 -54.51937 988 ft 45 kts 238°
2026-05-04 19:09 -27.90817 -54.52069 988 ft 8 kts 148°
2026-05-04 19:10 -27.90817 -54.52055 988 ft 0 kts 54°